GW4140 Weather Reports


time (UTC)temp
C
wind
direction
speed
KPH
gust
KPH
rain 1hr
cm
rain 24hr
cm
rain mn
cm
humidity
%
barometer
mb
20260510071557 22 229 9.7 17.7 0.00 0.00 0.00 76 1010.5
20260510070050 22 234 9.7 17.7 0.00 0.00 0.00 75 1010.7
20260510064554 22 231 9.7 16.1 0.00 0.00 0.00 73 1010.8
20260510063050 22 238 11.3 19.3 0.00 0.00 0.00 72 1010.9
20260510061550 22 236 11.3 19.3 0.00 0.00 0.00 70 1010.8
20260510060049 22 257 11.3 17.7 0.00 0.00 0.00 69 1010.8
20260510054548 22 226 8.0 17.7 0.00 0.00 0.00 68 1011.0
20260510053049 22 217 6.4 14.5 0.00 0.00 0.00 69 1010.9
20260510051553 23 208 8.0 17.7 0.00 0.00 0.00 68 1010.7
20260510050049 23 216 8.0 16.1 0.00 0.00 0.00 67 1010.8
20260510044552 23 212 4.8 14.5 0.00 0.00 0.00 67 1010.8
20260510043104 23 231 8.0 17.7 0.00 0.00 0.00 66 1010.7
20260510041548 23 216 12.9 20.9 0.00 0.00 0.00 65 1010.6
20260510040053 23 212 11.3 17.7 0.00 0.00 0.00 63 1010.7
20260510034547 24 215 11.3 19.3 0.00 0.00 0.00 61 1010.7
20260510033053 24 221 8.0 17.7 0.00 0.00 0.00 56 1010.8
20260510031554 25 222 8.0 16.1 0.00 0.00 0.00 53 1010.7
20260510030048 25 211 4.8 12.9 0.00 0.00 0.00 52 1010.7
20260510024550 25 233 6.4 16.1 0.00 0.00 0.00 50 1010.6
20260510023048 26 193 8.0 16.1 0.00 0.00 0.00 49 1010.3
20260510021544 26 231 9.7 17.7 0.00 0.00 0.00 49 1010.0
20260510020051 26 226 8.0 14.5 0.00 0.00 0.00 48 1009.8
20260510014549 26 224 4.8 9.7 0.00 0.00 0.00 49 1009.7
20260510013051 27 204 3.2 9.7 0.00 0.00 0.00 48 1009.6
20260510011552 27 211 3.2 4.8 0.00 0.00 0.00 48 1009.6
20260510010054 29 217 3.2 4.8 0.00 0.00 0.00 45 1009.5
20260510004548 30 232 3.2 12.9 0.00 0.00 0.00 43 1009.4
20260510003057 31 235 4.8 12.9 0.00 0.00 0.00 40 1009.4
20260510001554 31 243 8.0 14.5 0.00 0.00 0.00 39 1009.4
20260510000100 31 218 9.7 14.5 0.00 0.00 0.00 37 1009.4
20260509234548 31 221 6.4 14.5 0.00 0.00 0.00 37 1009.4
20260509233054 31 234 9.7 17.7 0.00 0.00 0.00 34 1009.5
20260509231557 31 226 9.7 17.7 0.00 0.00 0.00 35 1009.4
20260509230048 32 259 11.3 16.1 0.00 0.00 0.00 34 1009.5
20260509224557 32 253 14.5 19.3 0.00 0.00 0.00 34 1009.5
20260509223049 31 205 9.7 17.7 0.00 0.00 0.00 34 1009.5
20260509221602 31 236 9.7 20.9 0.00 0.00 0.00 32 1009.5
20260509220050 32 159 9.7 19.3 0.00 0.00 0.00 36 1009.7
20260509214553 31 221 9.7 25.7 0.00 0.00 0.00 36 1009.8
20260509213049 31 226 9.7 22.5 0.00 0.00 0.00 37 1009.8
20260509211555 31 250 12.9 25.7 0.00 0.00 0.00 38 1010.0
20260509210058 31 209 9.7 22.5 0.00 0.00 0.00 37 1010.4
20260509204558 31 176 12.9 22.5 0.00 0.00 0.00 38 1010.5
20260509203049 31 249 11.3 22.5 0.00 0.00 0.00 41 1010.8
20260509201559 31 217 8.0 20.9 0.00 0.00 0.00 39 1011.2
20260509200058 31 170 6.4 20.9 0.00 0.00 0.00 41 1011.2
20260509194550 31 239 12.9 20.9 0.00 0.00 0.00 40 1011.2
20260509193046 30 247 8.0 22.5 0.00 0.00 0.00 44 1011.6
20260509191548 30 231 11.3 19.3 0.00 0.00 0.00 43 1011.7
20260509190101 30 262 12.9 20.9 0.00 0.00 0.00 45 1011.9
20260509184548 29 210 8.0 20.9 0.00 0.00 0.00 46 1012.0
20260509183049 29 224 9.7 20.9 0.00 0.00 0.00 46 1012.2
20260509181547 28 274 11.3 17.7 0.00 0.00 0.00 49 1012.5
20260509180051 28 233 11.3 19.3 0.00 0.00 0.00 48 1012.7
20260509174550 28 237 8.0 16.1 0.00 0.00 0.00 55 1012.8
20260509173049 27 248 8.0 17.7 0.00 0.00 0.00 55 1013.0
20260509171554 27 229 6.4 20.9 0.00 0.00 0.00 57 1013.2
20260509170142 27 207 9.7 19.3 0.00 0.00 0.00 58 1013.4
20260509164557 26 266 9.7 17.7 0.00 0.00 0.00 62 1013.4
20260509163051 26 252 8.0 17.7 0.00 0.00 0.00 64 1013.4
20260509161556 25 250 11.3 19.3 0.00 0.00 0.00 65 1013.4
20260509160047 25 299 11.3 17.7 0.00 0.00 0.00 67 1013.3
20260509154548 24 274 12.9 20.9 0.00 0.00 0.00 71 1013.4
20260509153055 23 296 9.7 19.3 0.00 0.00 0.00 76 1013.5
20260509151552 22 288 11.3 17.7 0.00 0.00 0.00 79 1013.5
20260509150051 22 281 8.0 14.5 0.00 0.00 0.00 83 1013.6
20260509144550 21 281 6.4 12.9 0.00 0.00 0.00 87 1013.8
20260509143055 20 319 4.8 12.9 0.00 0.00 0.00 91 1013.9
20260509141549 18 274 8.0 12.9 0.00 0.00 0.00 93 1013.9
20260509134624 18 314 6.4 11.3 0.00 0.00 0.00 95 1014.0
20260509133057 17 285 4.8 9.7 0.00 0.00 0.00 96 1013.8
20260509131553 17 293 6.4 11.3 0.00 0.00 0.00 96 1013.6
20260509130048 17 309 3.2 8.0 0.00 0.00 0.00 96 1013.6
20260509124545 16 260 3.2 4.8 0.00 0.00 0.00 95 1013.4
20260509123052 17 260 3.2 4.8 0.00 0.00 0.00 95 1013.3
20260509121553 17 260 0.0 4.8 0.00 0.00 0.00 94 1013.5
20260509120052 17 254 3.2 8.0 0.00 0.00 0.00 94 1013.2
20260509114548 17 266 6.4 12.9 0.00 0.00 0.00 94 1013.0
20260509113053 17 241 3.2 6.4 0.00 0.00 0.00 93 1012.9
20260509111551 17 225 4.8 9.7 0.00 0.00 0.00 93 1012.4
20260509110052 17 207 4.8 9.7 0.00 0.00 0.00 93 1012.3
20260509104552 17 0 0.0 0.0 0.00 0.00 0.00 92 1012.1
20260509103053 17 0 0.0 0.0 0.00 0.00 0.00 91 1012.3
20260509101559 18 178 1.6 4.8 0.00 0.00 0.00 90 1012.3
20260509100051 18 165 0.0 8.0 0.00 0.00 0.00 89 1012.6
20260509094548 18 170 3.2 9.7 0.00 0.00 0.00 88 1012.6
20260509093059 18 155 6.4 12.9 0.00 0.00 0.00 88 1012.4
20260509091556 18 150 9.7 16.1 0.00 0.00 0.00 89 1012.4
20260509090052 18 133 6.4 14.5 0.00 0.00 0.00 90 1012.7
20260509084550 18 154 9.7 20.9 0.00 0.00 0.00 92 1013.0
20260509083052 19 136 9.7 17.7 0.00 0.00 0.00 94 1013.3
20260509081551 19 104 8.0 14.5 0.00 0.00 0.00 95 1013.7
20260509080048 18 141 4.8 11.3 0.00 0.00 0.00 95 1013.5
20260509074558 18 112 8.0 19.3 0.00 0.00 0.00 95 1013.5
20260509073048 18 78 11.3 24.1 0.00 0.00 0.00 95 1013.7